Location: Unspecified
(0.0000°N, 0.0000°E)
Time: 11:10:01
(UTC+00:00)

Transit 2A Rocket - Pass Details

Date: 27 November 2019
Orbit: 594 x 909 km, 66.7° (Epoch: 14 December)

Event Time Altitude Azimuth Distance (km) Brightness Sun altitude
Rises 18:22:49 0° 213° (SSW) 3,343 9.3 -8.2°
Reaches altitude 10° 18:25:28 10° 219° (SW) 2,359 8.6 -8.8°
Maximum altitude 18:30:31 41° 288° (WNW) 1,072 6.2 -10.0°
Drops below altitude 10° 18:35:07 10° 358° (N) 2,151 7.1 -11.1°
Sets 18:37:27 0° 6° (N) 3,016 7.8 -11.6°
